Regional Weather Roundup
Issued by NWS

Home | Current Version | Previous Version | Text Only | Print | Product List | Glossary Off
Versions: 1 2 3 4 5 6 7 8 9 10 11 12 13 14 15 16 17 18 19 20 21 22 23 24 25 26 27 28 29 30 31 32 33 34 35 36 37 38 39 40 41 42 43 44 45 46 47 48 49 50

000
ASUS45 KABQ 300610
RWRNM
NEW MEXICO REGIONAL WEATHER ROUNDUP
NATIONAL WEATHER SERVICE ALBUQUERQUE NM
1200 AM MDT FRI SEP 30 2016

NOTE: "FAIR" MEANS FEW OR NO CLOUDS BELOW 12,000 FEET AGL WITH NO
       SIGNIFICANT WEATHER OR OBSTRUCTIONS TO VISION.

      THIS PRODUCT IS RELEASED AS TWO VERSIONS.  ONE VERSION NEAR
      THE TOP OF THE HOUR CONTAINING PRELIMINARY DATA FROM ALBUQUERQUE
      AND OTHER STATIONS.  A FINAL VERSION WITH ADDITIONAL DATA IS
      ISSUED ABOUT 10 MINUTES AFTER THE HOUR.

NMZ501-503-504-510>518-300700-
NORTHWEST PLATEAU/NORTHCENTRAL MOUNTAINS

CITY           SKY/WX    TMP DP  RH WIND       PRES   REMARKS
FARMINGTON     FAIR      54  52  93 CALM      30.38S
6HR MIN TEMP:  54; 6HR MAX TEMP:  58; 6HR PCP:  0.03;

LOS ALAMOS     FAIR      56  46  66 CALM      30.47F
SANTA FE       MOCLDY    55  48  77 SW6       30.42S
6HR MIN TEMP:  54; 6HR MAX TEMP:  72;

TAOS           FAIR      54  37  54 SE7       30.46F
ANGEL FIRE     MOCLDY    51  40  66 CALM      30.52F

$$
NMZ402-403-502-505>509-300700-
WESTCENTRAL MOUNTAINS/SOUTHWEST MOUNTAINS

CITY           SKY/WX    TMP DP  RH WIND       PRES   REMARKS
GALLUP         FAIR      48  47  96 CALM      30.43S
6HR MIN TEMP:  48; 6HR MAX TEMP:  57;

SILVER CITY    TSTM      57  55  93 N26       30.37F

$$
NMZ407-409-411-412-300700-
SOUTHERN DESERTS

CITY           SKY/WX    TMP DP  RH WIND       PRES   REMARKS
DEMING         CLOUDY    68  52  56 NW22G29   30.31R
6HR MIN TEMP:  68; 6HR MAX TEMP:  81; 6HR PCP: TRACE;

LAS CRUCES     CLOUDY    71  44  38 SE13      30.31R
HOLLOMAN AFB   CLOUDY    72  44  36 SW8       30.27S
ALAMOGORDO     FAIR      68  43  40 N7        30.29S
T OR C         RAIN      62  56  80 NW13      30.40R
6HR MIN TEMP:  62; 6HR MAX TEMP:  80; 6HR PCP:  0.02;


$$
NMZ519>523-300700-
CENTRAL VALLEYS/CENTRAL HIGHLANDS

CITY           SKY/WX    TMP DP  RH WIND       PRES   REMARKS
ALBUQUERQUE    MOCLDY    60  58  92 SW5       30.42R
6HR MIN TEMP:  59; 6HR MAX TEMP:  67; 6HR PCP:  0.02;

DOUBLE EAGLE   MOCLDY    56  55  95 SW8       30.43S
MORIARTY ARPT  MOCLDY    55  46  71 CALM      30.44S
6HR MIN TEMP:  55; 6HR MAX TEMP:  72;

CLINES CORNERS MOCLDY    54  45  71 SW3       30.46F
6HR MIN TEMP:  51; 6HR MAX TEMP:  65;

BELEN          LGT RAIN  59  59 100 W8        30.41F
6HR MIN TEMP:  58; 6HR MAX TEMP:  69; 6HR PCP:  0.29;

SOCORRO        CLOUDY    59  56  89 CALM      30.40R
6HR MIN TEMP:  59; 6HR MAX TEMP:  79; 6HR PCP:  0.02;


$$
NMZ524>526-539-540-300700-
SOUTHCENTRAL MOUNTAINS

CITY           SKY/WX    TMP DP  RH WIND       PRES   REMARKS
RUIDOSO        FAIR      55  41  58 SE5       30.49S

$$
NMZ527>531-300700-
NORTHEAST HIGHLANDS/NORTHEAST PLAINS

CITY           SKY/WX    TMP DP  RH WIND       PRES   REMARKS
LAS VEGAS      FAIR      51  40  65 S13       30.43F
6HR MIN TEMP:  50; 6HR MAX TEMP:  68;

RATON          FAIR      52  32  46 W5        30.37F
6HR MIN TEMP:  49; 6HR MAX TEMP:  71;

CLAYTON        FAIR      50  46  86 S12       30.32F
6HR MIN TEMP:  49; 6HR MAX TEMP:  72;


$$
NMZ532>537-300700-
EASTCENTRAL PLAINS

CITY           SKY/WX    TMP DP  RH WIND       PRES   REMARKS
TUCUMCARI      FAIR      60  47  61 SW7       30.30S
6HR MIN TEMP:  60; 6HR MAX TEMP:  81;

CANNON AFB     MOCLDY    55  50  83 S6        30.34F
6HR MIN TEMP:  55; 6HR MAX TEMP:  74; 6HR PCP: TRACE;

CLOVIS AIRPORT FAIR      55  46  71 S8        30.34F

$$
NMZ028-029-538-300700-
SOUTHEAST PLAINS

CITY           SKY/WX    TMP DP  RH WIND       PRES   REMARKS
ROSWELL        FAIR      63  47  55 S8        30.31F
6HR MIN TEMP:  62; 6HR MAX TEMP:  79;

ARTESIA        FAIR      61  50  67 SW5       30.32S
CARLSBAD       FAIR      57  50  77 SW8       30.29S
6HR MIN TEMP:  56; 6HR MAX TEMP:  77;

HOBBS          FAIR      55  50  82 E6        30.33F


$$




USA.gov is the U.S. government's official web portal to all federal, state and local government web resources and services.